SCD 1 1 22490U 93009B 25258.29913184 .00000551 00000+0 10019-3 0 9991 2 22490 24.9688 104.6081 0042219 108.8875 51.4334 14.45910733721288 TECHSAT 1B (GO-32) 1 25397U 98043D 25258.19620501 .00000105 00000+0 65569-4 0 9996 2 25397 98.9816 239.4006 0000489 341.4934 18.6226 14.24338787412180 SCD 2 1 25504U 98060A 25258.30478279 .00000452 00000+0 75505-4 0 9997 2 25504 24.9959 327.1541 0017064 98.4571 306.6125 14.45344498420512 DLR-TUBSAT 1 25757U 99029B 25258.27351984 .00000171 00000+0 53848-4 0 9996 2 25757 98.6467 240.0941 0015373 104.9940 255.2958 14.52303687393341 TERRA 1 25994U 99068A 25258.24326757 .00000542 00000+0 12024-3 0 9991 2 25994 97.9890 313.1084 0002943 46.2087 26.6886 14.60799041369463 MAROC-TUBSAT 1 27004U 01056D 25258.26314706 -.00000011 00000+0 40478-4 0 9995 2 27004 99.7886 65.1738 0020466 125.8944 53.9168 13.70246963188531 AQUA 1 27424U 02022A 25258.25196109 .00001147 00000+0 24124-3 0 9998 2 27424 98.3877 217.7853 0001996 92.7145 11.7514 14.61480738243100 IRS-P6 (RESOURCESAT-1) 1 28051U 03046A 25258.35590521 .00000153 00000+0 65143-4 0 9992 2 28051 98.2324 302.7890 0065429 86.9374 284.6480 14.36016306141084 SHIYAN-1 (SY-1) 1 28220U 04012A 25258.10469374 .00008665 00000+0 35069-3 0 9997 2 28220 97.9072 314.5717 0005501 261.1462 98.9152 15.24953736169040 AURA 1 28376U 04026A 25258.22334672 .00001148 00000+0 24580-3 0 9994 2 28376 98.3020 208.1355 0001736 83.1341 277.0057 14.60620123126069 IRS-P5 (CARTOSAT-1) 1 28649U 05017A 25258.11406543 .00001786 00000+0 19091-3 0 9992 2 28649 97.5613 288.4192 0000660 120.5269 239.6015 14.89951139102844 SINAH 1 1 28893U 05043D 25258.30311242 .00000498 00000+0 10469-3 0 9993 2 28893 98.2497 26.6877 0015577 60.1747 300.1002 14.63808918 60300 EROS B 1 29079U 06014A 25258.27063566 .00096248 00000+0 18602-2 0 9992 2 29079 97.3503 12.2458 0002588 71.0422 289.1108 15.47424272 77042 RESURS-DK 1 1 29228U 06021A 25258.16845468 .00002953 00000+0 18052-3 0 9993 2 29228 69.9353 330.6044 0004485 343.5165 16.5854 15.11430111 60999 ARIRANG-2 (KOMPSAT-2) 1 29268U 06031A 25258.31801311 .00000413 00000+0 86676-4 0 9991 2 29268 97.8337 91.0779 0013496 221.8937 311.1799 14.64374003 21246 LAPAN-TUBSAT 1 29709U 07001A 25258.27558932 .00000777 00000+0 96646-4 0 9993 2 29709 98.1187 246.6452 0012390 7.7004 352.4398 14.85467305 10339 HAIYANG-1B 1 31113U 07010A 25258.21012140 .00000142 00000+0 69699-4 0 9999 2 31113 98.3231 246.1748 0012448 299.8724 60.1222 14.30921350961309 COSMO-SKYMED 1 1 31598U 07023A 25258.32333066 .00004348 00000+0 40435-3 0 9993 2 31598 97.8893 83.1847 0001349 93.1117 267.0258 14.94862268988681 TERRASAR-X 1 31698U 07026A 25257.79652925 .00001753 00000+0 86684-4 0 9999 2 31698 97.4465 264.4601 0001899 80.3005 279.8444 15.19145554 11415 WORLDVIEW-1 (WV-1) 1 32060U 07041A 25258.31142593 .00010679 00000+0 43947-3 0 9995 2 32060 97.3826 17.0466 0003185 10.3730 349.7572 15.24308151 1001 YAOGAN-3 1 32289U 07055A 25258.34530970 .00002457 00000+0 26562-3 0 9995 2 32289 97.8481 285.7467 0001243 97.5662 262.5697 14.89213734964937 COSMO-SKYMED 2 1 32376U 07059A 25258.25820851 .00000595 00000+0 81247-4 0 9999 2 32376 97.8902 80.8563 0001473 85.9105 274.2277 14.82162467961278 RADARSAT-2 1 32382U 07061A 25258.33220284 .00000107 00000+0 58248-4 0 9996 2 32382 98.5814 264.1852 0001218 89.8720 270.2602 14.29982429926678 CARTOSAT-2A 1 32783U 08021A 25258.30285213 .00000824 00000+0 11902-3 0 9999 2 32783 97.8057 310.8370 0009826 286.0147 73.9982 14.78769823938177 HUANJING 1A (HJ-1A) 1 33320U 08041A 25258.31864613 .00001625 00000+0 20574-3 0 9992 2 33320 97.6484 250.3544 0018298 325.3554 34.6467 14.82980668917659 HUANJING 1B (HJ-1B) 1 33321U 08041B 25258.31257495 .00001395 00000+0 17815-3 0 9995 2 33321 97.6356 254.2628 0037149 8.0673 352.1131 14.82470617917673 GEOEYE 1 1 33331U 08042A 25258.26197351 .00000587 00000+0 11898-3 0 9992 2 33331 98.1246 330.6433 0003987 184.1930 175.9240 14.64774285909903 THEOS 1 33396U 08049A 25258.32690190 .00000054 00000+0 45487-4 0 9997 2 33396 98.6001 318.9627 0001255 91.3662 268.7658 14.20067649878954 COSMO-SKYMED 3 1 33412U 08054A 25258.29393487 .00005538 00000+0 40200-3 0 9996 2 33412 97.8602 107.2189 0018229 114.0358 246.2778 15.04185829915575 YAOGAN-4 1 33446U 08061A 25258.04925334 .00001047 00000+0 13759-3 0 9996 2 33446 97.9058 189.1124 0013036 244.5328 115.4537 14.82280427904891 GOSAT (IBUKI) 1 33492U 09002A 25258.02428750 .00000598 00000+0 11384-3 0 9993 2 33492 98.0702 7.8963 0001249 108.6313 251.5028 14.67537103891109 DEIMOS-1 1 35681U 09041A 25258.31223019 .00000795 00000+0 12593-3 0 9993 2 35681 97.7106 63.0705 0001911 47.2661 312.8709 14.74735329866368 DUBAISAT-1 1 35682U 09041B 25258.16291559 .00001467 00000+0 22962-3 0 9999 2 35682 97.9685 30.2306 0009665 229.7360 130.3004 14.74202405864568 OCEANSAT-2 1 35931U 09051A 25258.25958242 .00000021 00000+0 39828-4 0 9991 2 35931 98.2259 267.8120 0015417 296.2046 63.7535 13.99611425840878 WORLDVIEW-2 (WV-2) 1 35946U 09055A 25258.20333237 .00000170 00000+0 71406-4 0 9990 2 35946 98.4800 330.5291 0003330 342.8401 17.2673 14.37446997836133 SMOS 1 36036U 09059A 25258.26245745 .00000369 00000+0 13176-3 0 9996 2 36036 98.4436 84.5970 0001180 88.2489 271.8835 14.39747421833893 YAOGAN-7 1 36110U 09069A 25258.12283243 .00000623 00000+0 94382-4 0 9992 2 36110 98.0396 140.1731 0024145 202.9248 157.0886 14.77534158849009 TANDEM-X 1 36605U 10030A 25257.79652814 .00001919 00000+0 94571-4 0 9996 2 36605 97.4469 264.4597 0001853 95.2027 264.9419 15.19145837844836 CARTOSAT-2B 1 36795U 10035A 25258.33844067 .00000812 00000+0 11718-3 0 9997 2 36795 97.7994 310.1667 0011590 10.0413 350.1028 14.78782945819233 YAOGAN-10 1 36834U 10038A 25258.33721159 .00000781 00000+0 99418-4 0 9999 2 36834 97.9237 278.7822 0001376 89.2569 326.9090 14.84352649816421 COSMO-SKYMED 4 1 37216U 10060A 25258.27087884 .00001093 00000+0 14382-3 0 9995 2 37216 97.8903 80.8703 0001477 87.6436 272.4946 14.82146077803843 RESOURCESAT-2 1 37387U 11015A 25258.24363633 .00000107 00000+0 69015-4 0 9990 2 37387 98.7999 322.1368 0004797 293.1667 66.9005 14.21590053747113 HAIYANG-2A 1 37781U 11043A 25258.24957806 .00000007 00000+0 50457-4 0 9999 2 37781 99.3372 260.5346 0000703 31.7299 328.3894 13.78825438708795 RASAT 1 37791U 11044D 25258.28505727 .00000648 00000+0 12217-3 0 9998 2 37791 98.0672 348.8585 0020347 347.3622 97.9060 14.67709860752851 SRMSAT 1 37841U 11058D 25257.44434738 .00000409 00000+0 78501-4 0 9993 2 37841 19.9720 288.3720 0011937 50.9586 339.7082 14.11463943718810 PLEIADES 1A 1 38012U 11076F 25258.31283626 .00000361 00000+0 87571-4 0 9993 2 38012 98.1913 332.4028 0000966 95.5938 352.6450 14.58543243731925 ZIYUAN 1-02C (ZY 1-02C) 1 38038U 11079A 25258.31661719 .00000540 00000+0 19320-3 0 9992 2 38038 98.4448 325.9155 0007348 57.0317 31.2300 14.37864300719705 ZIYUAN 3-1 (ZY 3-1) 1 38046U 12001A 25258.30951207 .00038975 00000+0 54530-3 0 9995 2 38046 97.1912 323.4315 0001044 302.1365 57.9789 15.56722525761168 ARIRANG-3 (KOMPSAT-3) 1 38338U 12025B 25258.29581064 .00000620 00000+0 13473-3 0 9990 2 38338 98.3150 212.3063 0004643 235.4836 124.5926 14.61530923711189 EXACTVIEW-1 (ADS-1B) 1 38709U 12039C 25258.26538443 .00000157 00000+0 87275-4 0 9994 2 38709 98.9581 4.8342 0010026 241.0335 118.9839 14.24850742683550 SPOT 6 1 38755U 12047A 25258.24290932 .00000334 00000+0 81468-4 0 9995 2 38755 98.1689 324.6013 0001356 105.5378 254.5971 14.58592808692970 PLEIADES 1B 1 39019U 12068A 25258.33015579 .00000353 00000+0 85858-4 0 9992 2 39019 98.1884 332.3329 0001177 97.2784 262.8549 14.58538993680780 GOKTURK 2 1 39030U 12073A 25258.26795802 .00000646 00000+0 10285-3 0 9993 2 39030 97.7010 104.2326 0001836 105.5465 254.5948 14.75110573683977 LANDSAT 8 1 39084U 13008A 25258.20996254 .00000447 00000+0 10933-3 0 9998 2 39084 98.2177 327.5389 0001235 93.4734 266.6606 14.57101427657853 SARAL 1 39086U 13009A 25258.24456074 .00000138 00000+0 66720-4 0 9999 2 39086 98.5551 83.3152 0002565 45.2689 314.8704 14.32710930656234 GAOFEN-1 1 39150U 13018A 25258.33241264 .00000820 00000+0 12460-3 0 9993 2 39150 97.9424 330.5065 0018910 73.8513 286.4776 14.76536183667680 VNREDSAT 1 1 39160U 13021B 25258.30440992 .00000720 00000+0 14271-3 0 9995 2 39160 97.9399 316.6440 0001209 94.6197 265.5145 14.65059348660048 ARIRANG-5 (KOMPSAT-5) 1 39227U 13042A 25258.22046299 -.00000330 00000+0 -19273-4 0 9992 2 39227 97.6209 83.7601 0002927 25.1234 335.0134 15.04501068662519 SKYSAT-A 1 39418U 13066C 25258.20743784 .00004087 00000+0 24950-3 0 9999 2 39418 97.4252 311.0913 0022639 179.7325 180.3921 15.10642247646934 DUBAISAT-2 1 39419U 13066D 25258.24835426 .00005900 00000+0 39611-3 0 9994 2 39419 97.4411 251.4796 0009759 253.8994 106.1159 15.07140905644939 GPM-CORE 1 39574U 14009C 25258.19082422 .00022010 00000+0 47038-3 0 9991 2 39574 64.9760 149.2806 0006448 263.9325 96.1081 15.44830483655331 SENTINEL-1A 1 39634U 14016A 25258.32761610 .00000234 00000+0 59381-4 0 9993 2 39634 98.1828 264.8509 0001353 89.6393 270.4962 14.59200485609932 KAZEOSAT 1 1 39731U 14024A 25258.32243183 .00000223 00000+0 81144-4 0 9990 2 39731 98.3526 332.1725 0001097 91.1549 268.9767 14.42036821598948 ALOS-2 1 39766U 14029A 25258.41453480 .00000111 00000+0 21767-4 0 9997 2 39766 97.9225 354.5228 0001476 103.0909 257.0467 14.79472327610954 KAZEOSAT 2 1 40010U 14033A 25258.29132086 .00000829 00000+0 10315-3 0 9990 2 40010 97.5634 107.1299 0009573 139.0573 221.1364 14.84954302608151 HODOYOSHI-4 1 40011U 14033B 25258.27048355 .00001752 00000+0 20015-3 0 9998 2 40011 97.5496 91.5116 0025072 134.1067 226.2219 14.87024613607934 DEIMOS-2 1 40013U 14033D 25258.29461334 .00002203 00000+0 22052-3 0 9993 2 40013 97.6176 137.0003 0001978 106.1677 253.9761 14.92393951596709 HODOYOSHI-3 1 40015U 14033F 25258.19221172 .00002155 00000+0 26056-3 0 9992 2 40015 97.6176 67.9260 0033490 177.9452 182.1907 14.84309884606810 SPOT 7 1 40053U 14034A 25258.30383266 .00000583 00000+0 12936-3 0 9996 2 40053 98.1030 322.3673 0001389 83.1806 276.9553 14.60562344597001 SKYSAT-B 1 40072U 14037D 25257.80029540 .00001393 00000+0 16307-3 0 9992 2 40072 98.3458 196.9257 0007279 90.6102 269.5947 14.86790694605023 WORLDVIEW-3 (WV-3) 1 40115U 14048A 25258.25581563 .00001226 00000+0 14941-3 0 9997 2 40115 97.8706 331.6265 0006252 122.7196 237.4622 14.85170733601102 GAOFEN-2 1 40118U 14049A 25258.33707525 .00001576 00000+0 21384-3 0 9995 2 40118 98.0517 317.3034 0008012 64.0069 296.1967 14.80291092598562 YAOGAN-21 1 40143U 14053A 25258.29125434 .00012540 00000+0 52679-3 0 9990 2 40143 97.1906 305.3548 0013785 27.9780 332.2196 15.23482469613078 YAOGAN-22 1 40275U 14063A 25258.10778173 .00000010 00000+0 15040-3 0 9991 2 40275 100.7320 40.3187 0006852 90.2364 269.9533 13.15516223523647 ASNARO 1 40298U 14070A 25258.30233876 .00000959 00000+0 48472-4 0 9990 2 40298 97.3731 336.3658 0002748 92.9575 267.1975 15.19373827602266 YAOGAN-24 1 40310U 14072A 25258.35459439 .00000977 00000+0 14849-3 0 9997 2 40310 98.1121 29.0293 0015472 68.9651 291.3211 14.76236279583171 CBERS 4 1 40336U 14079A 25258.34367220 .00000136 00000+0 62016-4 0 9994 2 40336 98.3443 319.3200 0001964 76.8454 283.2951 14.35508239564523 YAOGAN-26 1 40362U 14088A 25258.26926580 .00024799 00000+0 72634-3 0 9991 2 40362 97.0672 262.3440 0004393 357.2395 2.8825 15.35199121595351 SMAP 1 40376U 15003A 25258.27592336 .00000619 00000+0 12867-3 0 9990 2 40376 98.1313 264.2493 0001450 85.4747 274.6620 14.63419946567419 KOMPSAT-3A 1 40536U 15014A 25258.27983537 .00025373 00000+0 64627-3 0 9992 2 40536 97.6661 228.1095 0006331 99.7109 260.4851 15.39531054579328 SENTINEL-2A 1 40697U 15028A 25258.31955598 .00000151 00000+0 74372-4 0 9992 2 40697 98.5717 332.1026 0001142 95.3006 264.8307 14.30812564534425 GAOFEN-8 1 40701U 15030A 25258.26374366 .00021055 00000+0 62649-3 0 9992 2 40701 97.6951 72.3661 0012581 98.4713 261.7956 15.34675597569126 CARBONITE 1 (CBNT-1) 1 40718U 15032D 25258.29415671 .00002297 00000+0 29427-3 0 9994 2 40718 97.6448 83.2557 0016018 114.2111 246.0779 14.82142239548601 YAOGAN-27 1 40878U 15040A 25258.28795762 -.00000031 00000+0 29648-4 0 9992 2 40878 100.0945 251.9192 0008766 125.8784 234.3145 13.16054330481505 GAOFEN-9 01 1 40894U 15047A 25258.29773488 .00001211 00000+0 15786-3 0 9996 2 40894 97.6685 301.0173 0026789 324.0155 35.9254 14.82083312539462 YAOGAN-28 1 41026U 15064A 25258.30836973 .00012425 00000+0 51213-3 0 9998 2 41026 97.2709 38.7406 0014576 67.1109 293.1666 15.24119668548782 YAOGAN-29 1 41038U 15069A 25258.35249067 .00000495 00000+0 68012-4 0 9993 2 41038 98.0318 281.1895 0001778 145.6601 214.4727 14.82734352529896 KENT RIDGE 1 1 41167U 15077B 25257.06979488 .00003813 00000+0 13584-3 0 9999 2 41167 14.9793 155.9512 0009021 309.3497 50.6025 15.20601755538960 GAOFEN-4 1 41194U 15083A 25258.03457473 -.00000349 00000+0 00000+0 0 9996 2 41194 0.0412 67.7358 0001956 126.1407 278.5064 1.00270145 35770 JASON-3 1 41240U 16002A 25258.28419548 -.00000045 00000+0 68830-4 0 9991 2 41240 66.0448 343.7947 0007757 265.1389 94.8744 12.87626990451857 SENTINEL-3A 1 41335U 16011A 25258.23721256 .00000135 00000+0 73961-4 0 9993 2 41335 98.6322 324.5202 0000941 105.9466 254.1818 14.26735018498851 ZIYUAN 3-2 (ZY 3-2) 1 41556U 16033A 25258.31852664 .00009687 00000+0 43713-3 0 9991 2 41556 97.4125 333.9131 0010459 195.8220 164.2690 15.21155820516190 CARTOSAT-2C 1 41599U 16040A 25258.47290520 .00007309 00000+0 34895-3 0 9990 2 41599 97.4128 316.9077 0011017 14.6074 345.5476 15.19292951512002 SKYSAT-C1 1 41601U 16040C 25258.18456931 .00011730 00000+0 40211-3 0 9994 2 41601 96.9972 300.2535 0000835 314.7250 45.3923 15.30322506515725 LAPAN-A3 1 41603U 16040E 25258.26610368 .00005263 00000+0 18062-3 0 9994 2 41603 97.1423 259.1007 0008792 282.8080 77.2179 15.30525107512729 BIROS 1 41604U 16040F 25258.04073534 .00044160 00000+0 38272-3 0 9993 2 41604 97.0820 287.4810 0006193 144.4948 215.6727 15.69004011514744 GAOFEN-3 1 41727U 16049A 25258.27822140 .00000077 00000+0 36574-4 0 9991 2 41727 98.4067 265.1879 0000654 87.7191 272.4074 14.42240921479020 SKYSAT-C4 1 41771U 16058B 25257.61238048 .00010149 00000+0 26626-3 0 9992 2 41771 96.9501 287.2814 0002839 134.9588 225.1890 15.38824515502954 SKYSAT-C5 1 41772U 16058C 25258.08448429 .00009147 00000+0 26247-3 0 9996 2 41772 97.0914 305.1893 0004215 75.3907 284.7805 15.36068743501558 SKYSAT-C2 1 41773U 16058D 25257.87883821 .00008409 00000+0 25370-3 0 9998 2 41773 97.0488 286.2797 0002784 1.9227 358.2028 15.34514924502725 SKYSAT-C3 1 41774U 16058E 25257.62875642 .00012017 00000+0 30065-3 0 9991 2 41774 96.9449 295.7097 0002372 118.9612 241.1874 15.40236220503524 ALSAT 1B 1 41785U 16059C 25258.30080325 .00000505 00000+0 88102-4 0 9991 2 41785 97.7876 273.8750 0010202 37.5794 322.6125 14.71924195480133 PATHFINDER 1 1 41787U 16059E 25258.26995790 .00000946 00000+0 17581-3 0 9990 2 41787 97.8158 265.1423 0028844 5.8838 354.2701 14.67079390479398 SCATSAT 1 1 41790U 16059H 25258.14768671 .00001669 00000+0 23015-3 0 9999 2 41790 98.1599 313.6713 0056735 54.6393 306.0101 14.78491530 60935 GOKTURK 1A 1 41875U 16073A 25258.26263664 .00000517 00000+0 11059-3 0 9990 2 41875 98.1487 151.7867 0001495 83.7088 276.4284 14.62776070468632 RESOURCESAT-2A 1 41877U 16074A 25258.29680337 .00000145 00000+0 86547-4 0 9998 2 41877 98.7858 328.6201 0002656 135.2673 224.8719 14.21609135455247 CARTOSAT-2D 1 41948U 17008A 25258.24368139 .00007220 00000+0 34581-3 0 9994 2 41948 97.4522 317.0165 0005710 119.4086 240.7719 15.19228511475834 SENTINEL-2B 1 42063U 17013A 25258.24245420 .00000155 00000+0 75630-4 0 9997 2 42063 98.5628 331.9656 0001170 91.1528 268.9789 14.30821280445329 ZHUHAI-1 02 (CAS-4B) 1 42759U 17034B 25257.81233646 .00211668 00000+0 91159-3 0 9997 2 42759 43.0007 95.7879 0024062 264.1082 95.7047 15.83192265457892 ZHUHAI-1 01 (CAS-4A) 1 42761U 17034D 25257.97538523 .00228966 26460-4 84956-3 0 9998 2 42761 43.0038 90.2453 0024790 271.2659 88.5375 15.86858000457954 CARTOSAT-2E 1 42767U 17036C 25258.32550030 .00006727 00000+0 32262-3 0 9992 2 42767 97.4690 316.9927 0003141 173.1324 186.9954 15.19218870456414 FORMOSAT-5 1 42920U 17049A 25258.22818833 .00000219 00000+0 66531-4 0 9991 2 42920 98.2532 334.2703 0010630 197.6993 162.3833 14.50923997426809 SENTINEL-5P 1 42969U 17064A 25258.09591739 .00000062 00000+0 50525-4 0 9991 2 42969 98.7626 197.5329 0001001 77.1048 283.0239 14.19546142410532 SKYSAT-C11 1 42987U 17068A 25258.13815067 .00026559 00000+0 61340-3 0 9998 2 42987 97.4055 33.8327 0001211 109.4403 250.6975 15.42505009440636 SKYSAT-C10 1 42988U 17068B 25258.09396600 .00009574 00000+0 31579-3 0 9990 2 42988 97.4162 28.7682 0001855 93.8538 266.2916 15.31646202440224 SKYSAT-C9 1 42989U 17068C 25258.16442805 .00020136 00000+0 60252-3 0 9995 2 42989 97.4091 27.9217 0011599 67.9410 292.3064 15.34514652440497 SKYSAT-C8 1 42990U 17068D 25258.08884087 .00009864 00000+0 31946-3 0 9993 2 42990 97.4182 27.8240 0002270 114.7359 245.4119 15.32225087440134 SKYSAT-C7 1 42991U 17068E 25258.15003423 .00015175 00000+0 50316-3 0 9993 2 42991 97.4191 28.9886 0005384 34.7956 325.3636 15.31347129440218 SKYSAT-C6 1 42992U 17068F 25258.08120578 .00008814 00000+0 29929-3 0 9995 2 42992 97.4224 29.4289 0002386 32.8254 327.3135 15.30729910440192 CARTOSAT-2F 1 43111U 18004A 25258.29311280 .00006707 00000+0 32168-3 0 9993 2 43111 97.4450 317.2886 0001838 122.8824 237.2588 15.19217284425593 GAOFEN-1 02 1 43259U 18031A 25258.41860249 .00000366 00000+0 59897-4 0 9998 2 43259 97.9736 316.1310 0004540 140.5265 219.6277 14.76427250402151 GAOFEN-1 03 1 43260U 18031B 25258.46494912 .00000744 00000+0 11471-3 0 9990 2 43260 97.9855 316.0628 0003852 194.2796 165.8305 14.76281313402158 GAOFEN-1 04 1 43262U 18031D 25258.43987439 .00000621 00000+0 96249-4 0 9991 2 43262 97.9812 316.1959 0001246 121.5386 238.5945 14.76563910402147 SENTINEL-3B 1 43437U 18039A 25258.14025319 .00000148 00000+0 79077-4 0 9995 2 43437 98.6221 324.5853 0001231 69.0323 291.0989 14.26735403384908 GAOFEN-5 01 1 43461U 18043A 25258.12326643 .00000385 00000+0 89946-4 0 9998 2 43461 98.4164 219.6237 0001454 165.0032 195.1211 14.60252132391541 GAOFEN-6 1 43484U 18048A 25258.28492057 .00000855 00000+0 12947-3 0 9996 2 43484 97.8147 325.4598 0011779 349.0281 11.0671 14.76603527392820 GAOFEN-11 01 1 43585U 18063A 25258.29526328 .00019838 00000+0 41013-3 0 9992 2 43585 97.1696 322.1195 0004299 259.2890 100.7876 15.45838896397743 ICESAT-2 1 43613U 18070A 25258.14332000 .00016806 00000+0 60994-3 0 9999 2 43613 91.9957 216.8581 0005391 139.3011 220.8642 15.28259757390452 HYSIS 1 43719U 18096A 25258.33287132 .00001366 00000+0 19348-3 0 9992 2 43719 98.0217 321.6841 0000488 99.2917 260.8349 14.78660099366800 KAZSTSAT 1 43783U 18099AB 25257.69503065 .00000548 00000+0 49868-4 0 9992 2 43783 97.4660 296.6817 0006285 249.3613 110.6936 14.98951394370028 SAUDISAT 5A 1 43831U 18102A 25258.33239578 .00007518 00000+0 31202-3 0 9994 2 43831 97.3486 320.2626 0011214 34.1070 326.0885 15.24075918373752 SAUDISAT 5B 1 43833U 18102C 25258.34476902 .00007108 00000+0 29160-3 0 9996 2 43833 97.3571 322.8569 0011982 36.1502 324.0543 15.24480535373863 GAOFEN-10R 1 44622U 19066A 25258.32204980 .00001725 00000+0 21914-3 0 9994 2 44622 98.0112 205.5676 0004800 330.5709 29.5233 14.82949150321644 CARTOSAT-3 1 44804U 19081A 25258.30631023 .00006264 00000+0 29961-3 0 9996 2 44804 97.4714 318.9385 0013506 37.9833 322.2351 15.19263448321736 GAOFEN-12 01 1 44819U 19082A 25258.27776141 .00000564 00000+0 80288-4 0 9997 2 44819 97.8155 266.8634 0003041 149.6311 210.5078 14.80498820313410 CSG-1 1 44873U 19092A 25258.28356462 .00000647 00000+0 87896-4 0 9993 2 44873 97.8903 80.8823 0001386 87.1391 272.9981 14.82151623310757 NEMO-HD 1 46277U 20061F 25258.33451940 .00014712 00000+0 39884-3 0 9995 2 46277 97.2350 318.6525 0001017 63.2865 296.8484 15.37734459279640 SENTINEL-6 1 46984U 20086A 25257.94589889 -.00000055 00000+0 24520-4 0 9995 2 46984 66.0449 346.7351 0007967 268.3858 91.6245 12.80930243225075 GAOFEN-12 02 1 48079U 21026A 25258.27677438 .00000598 00000+0 84984-4 0 9993 2 48079 97.9809 252.7270 0003379 56.8100 303.3435 14.80509355241085 PLEIADES NEO 3 1 48268U 21034A 25258.32847372 -.00000024 00000+0 36232-5 0 9993 2 48268 97.8949 332.0380 0001277 100.2819 259.8538 14.81673204236954 PLEIADES NEO 4 1 49070U 21073E 25258.29469605 -.00000027 00000+0 31302-5 0 9999 2 49070 97.8949 332.0007 0001328 99.5667 260.5696 14.81673338220663 LANDSAT 9 1 49260U 21088A 25258.17565901 .00000477 00000+0 11593-3 0 9995 2 49260 98.2197 327.5191 0001271 99.4149 260.7193 14.57114086210956 CSG-2 1 51444U 22008A 25258.24981322 .00000481 00000+0 66989-4 0 9997 2 51444 97.8907 80.8527 0001396 88.5757 271.5616 14.82147825195868 GAOFEN-12 03 1 52912U 22069A 25258.24872736 .00001671 00000+0 22276-3 0 9995 2 52912 97.8557 147.6119 0001280 76.9573 283.1783 14.80924122173959 SWOT 1 54754U 22173A 25258.24669018 .00000094 00000+0 65257-4 0 9999 2 54754 77.6100 46.4469 0000162 11.5720 348.5436 14.00173837140671 GAOFEN-12 04 1 57654U 23123A 25258.28181375 .00001554 00000+0 20792-3 0 9992 2 57654 97.9050 175.4377 0001990 118.2773 241.8640 14.80892547111973 PARS 1 1 59065U 24039Q 25258.27644564 .00014700 00000+0 39141-3 0 9995 2 59065 97.4504 227.5817 0012297 38.2384 321.9731 15.38221458 86275 RESURS-P 4 1 59371U 24061A 25258.24803496 .00005109 00000+0 16380-3 0 9991 2 59371 97.2381 206.3843 0000720 95.0375 265.0950 15.32782260 81654 LEGION 1 1 59625U 24081A 25258.20380108 .00006163 00000+0 31900-3 0 9997 2 59625 97.5294 333.5036 0003052 19.2131 340.9216 15.16582044 75851 LEGION 2 1 59626U 24081B 25258.23729526 .00006532 00000+0 33756-3 0 9993 2 59626 97.5297 333.6193 0000867 320.3717 39.7452 15.16620465 75863 ALOS-4 (DAICHI-4) 1 60182U 24123A 25257.75752490 .00001478 00000+0 20468-3 0 9991 2 60182 97.9221 353.8748 0001456 97.0203 263.1174 14.79479743 65150 LEGION 3 1 60452U 24146A 25258.18767492 .00007517 00000+0 39946-3 0 9993 2 60452 45.0013 64.9463 0016290 78.6262 281.6446 15.15772802 60299 LEGION 4 1 60453U 24146B 25258.18752301 .00007152 00000+0 38173-3 0 9993 2 60453 45.0373 156.3857 0011434 136.3892 223.7893 15.15730689 59140 SENTINEL-2C 1 60989U 24157A 25257.92794817 .00000071 00000+0 43566-4 0 9994 2 60989 98.5617 331.7245 0001206 89.8630 270.2691 14.30821003 53623 IONOSFERA-M 1 1 61735U 24199A 25258.28399141 .00000053 00000+0 43447-4 0 9999 2 61735 98.7534 128.7650 0000866 143.4485 216.6752 14.22686070 88616 IONOSFERA-M 2 1 61736U 24199B 25258.24842838 .00000053 00000+0 43464-4 0 9991 2 61736 98.7533 128.6432 0001843 63.2895 296.8471 14.22687715 91735 BIOMASS 1 63772U 25090A 25257.98424088 .00000930 00000+0 17211-3 0 9991 2 63772 98.0765 84.2498 0001385 93.3724 266.7639 14.67629160 20320 GOSAT-GW (IBUKI GW) 1 64694U 25141A 25256.03364140 .00000592 00000+0 11262-3 0 9993 2 64694 98.0275 193.2598 0001444 87.7028 272.4342 14.67567370 11196 IONOSFERA-M 3 1 64876U 25155A 25258.23748637 .00000117 00000+0 72105-4 0 9998 2 64876 98.5625 222.6578 0000711 357.4206 2.6968 14.22103781 7340 IONOSFERA-M 4 1 64877U 25155B 25258.19370619 .00000110 00000+0 69893-4 0 9998 2 64877 98.5624 222.5553 0000610 54.4926 305.6308 14.21200434 7338 MICROCARB 1 64899U 25156A 25258.27890875 .00000747 00000+0 12715-3 0 9999 2 64899 98.0103 335.0201 0017783 72.4280 287.8869 14.71814904 7523 CO3D 3 1 64900U 25156B 25258.31168109 .00007947 00000+0 36975-3 0 9998 2 64900 97.4350 335.9516 0000981 66.3863 293.7475 15.20211121 7775 CO3D 4 1 64901U 25156C 25252.96211728 .00045673 00000+0 20839-2 0 9999 2 64901 97.4007 330.7525 0004954 48.2125 311.9533 15.20456030 6960 CO3D 2 1 64902U 25156D 25258.27848113 .00008533 00000+0 39657-3 0 9997 2 64902 97.4337 335.8148 0000356 42.5820 317.5443 15.20228114 7766 CO3D 1 1 64903U 25156E 25258.27862491 .00007596 00000+0 35334-3 0 9999 2 64903 97.4323 335.8158 0000627 45.7916 314.3371 15.20234292 7764